Date String (YYYY-MM-DD hh:mm:ss) UTC,Instrument flags,Ambient pressure (hPa),Sample flow (lpm),Bypass flow (lpm),Sample temperature (°C),Ambient temperature (°C),ASC tube jacket temperature (°C),LED temperature (°C),Box temperature (°C),Sample RH (%),Span deviation,Mass concentration (μg/m³),Mass concentration (μg/m³),Mass concentration (μg/m³)
DateTimeUTC,F1_M11,P_M11,Q1_M11,Q2_M11,T1_M11,T2_M11,T3_M11,T4_M11,T5_M11,U1_M11,ZSPAN_M11,X2_M11,X0_M11,X1_M11
2021-09-11 23:00:00,,0827.0,5.01,0.00,29.0,26.0,00.0,37.9,30.4,20.1,0001.0,0008.71,0015.16,0007.53
2021-09-11 23:01:00,,0827.0,4.99,0.00,28.8,25.7,00.0,37.9,30.3,20.2,0001.1,0008.72,0016.69,0007.51
2021-09-11 23:02:00,,0827.1,4.99,0.00,28.8,26.2,00.0,37.9,30.4,19.8,0001.0,0008.78,0017.51,0007.49
2021-09-11 23:03:00,,0827.0,5.00,0.00,28.8,26.6,00.0,37.9,30.5,19.7,0000.9,0008.74,0017.50,0007.45
2021-09-11 23:04:00,,0827.0,5.00,0.00,28.8,27.0,00.0,37.9,30.7,19.4,0000.9,0008.78,0018.23,0007.43
2021-09-11 23:05:00,,0827.0,5.02,0.00,28.9,27.4,00.0,37.9,30.8,19.6,0000.7,0008.75,0018.25,0007.42
2021-09-11 23:06:00,,0827.0,5.00,0.00,29.0,27.8,00.0,37.9,30.9,19.7,0000.5,0008.73,0018.35,0007.40
2021-09-11 23:07:00,,0827.0,4.99,0.00,29.0,27.5,00.0,37.9,30.8,20.1,0000.4,0008.69,0018.49,0007.38
2021-09-11 23:08:00,,0827.0,5.02,0.00,28.9,25.9,00.0,37.9,30.3,19.9,0000.7,0008.67,0019.28,0007.36
2021-09-11 23:09:00,,0827.1,4.99,0.00,28.8,25.6,00.0,37.9,30.2,20.5,0000.9,0008.73,0019.81,0007.35
2021-09-11 23:10:00,,0827.0,5.01,0.00,28.8,26.1,00.0,37.9,30.4,20.0,0000.7,0008.83,0020.35,0007.36
2021-09-11 23:11:00,,0826.9,5.00,0.00,28.8,26.5,00.0,37.9,30.5,19.9,0000.4,0008.84,0019.98,0007.34
2021-09-11 23:12:00,,0827.0,5.01,0.00,28.8,27.0,00.0,37.9,30.6,19.8,0000.3,0008.79,0020.49,0007.33
2021-09-11 23:13:00,,0826.9,4.99,0.00,28.9,27.4,00.0,37.9,30.7,20.3,0000.5,0008.71,0019.99,0007.33
2021-09-11 23:14:00,,0827.0,5.01,0.00,28.9,27.7,00.0,37.9,30.8,20.9,0000.6,0008.69,0020.30,0007.34
2021-09-11 23:15:00,,0827.0,5.00,0.00,29.0,27.9,00.0,37.9,30.9,21.2,0000.6,0008.68,0019.74,0007.35
2021-09-11 23:16:00,,0827.0,4.99,0.00,29.0,26.8,00.0,37.9,30.6,20.9,0000.8,0008.70,0020.28,0007.36
2021-09-11 23:17:00,,0827.0,5.01,0.00,28.8,25.6,00.0,37.9,30.2,21.6,0000.6,0008.75,0020.39,0007.37
2021-09-11 23:18:00,,0827.0,5.00,0.00,28.8,25.9,00.0,37.9,30.3,21.4,0001.0,0008.76,0020.20,0007.37
2021-09-11 23:19:00,,0827.0,5.01,0.00,28.7,26.3,00.0,37.8,30.4,21.6,0000.7,0008.78,0019.41,0007.38
2021-09-11 23:20:00,,0827.0,4.98,0.00,28.7,26.7,00.0,37.8,30.5,21.3,0000.6,0008.82,0018.89,0007.39
2021-09-11 23:21:00,,0827.0,5.01,0.00,28.8,27.1,00.0,37.8,30.6,20.9,0000.7,0008.85,0018.98,0007.41
2021-09-11 23:22:00,,0827.1,5.00,0.00,28.9,27.5,00.0,37.9,30.7,20.5,0001.4,0008.88,0020.16,0007.43
2021-09-11 23:23:00,,0827.6,5.00,0.00,28.9,27.9,00.0,37.9,30.8,20.4,0001.7,0008.94,0018.37,0007.47
2021-09-11 23:24:00,,0827.1,5.01,0.00,29.0,28.1,00.0,37.9,30.9,19.9,0001.7,0008.96,0018.39,0007.49
2021-09-11 23:25:00,,0827.1,5.00,0.00,29.0,26.9,00.0,37.9,30.7,20.1,0001.6,0008.96,0019.03,0007.48
2021-09-11 23:26:00,,0827.0,5.01,0.00,28.9,25.6,00.0,37.9,30.3,21.2,0001.5,0008.94,0019.60,0007.48
2021-09-11 23:27:00,,0827.0,4.99,0.00,28.8,25.8,00.0,37.9,30.3,21.2,0001.3,0009.00,0019.88,0007.47
2021-09-11 23:28:00,,0827.0,4.99,0.00,28.8,26.3,00.0,37.9,30.4,21.6,0001.5,0008.98,0020.83,0007.46
2021-09-11 23:29:00,,0827.0,5.00,0.00,28.8,26.7,00.0,37.8,30.5,21.7,0001.4,0009.03,0021.05,0007.48
2021-09-11 23:30:00,,0827.1,5.00,0.00,28.8,27.1,00.0,37.8,30.6,22.1,0001.6,0009.03,0021.37,0007.50
2021-09-11 23:31:00,,0827.4,5.00,0.00,28.9,27.5,00.0,37.9,30.8,21.5,0001.7,0009.01,0021.60,0007.51
2021-09-11 23:32:00,,0827.1,4.99,0.00,29.0,27.8,00.0,37.9,30.9,21.8,0001.6,0008.97,0021.24,0007.52
2021-09-11 23:33:00,,0827.1,5.01,0.00,29.0,27.7,00.0,37.9,30.8,21.9,0001.1,0008.95,0021.05,0007.53
2021-09-11 23:34:00,,0827.1,5.00,0.00,28.9,26.1,00.0,37.9,30.4,21.2,0000.6,0008.95,0022.05,0007.51
2021-09-11 23:35:00,,0827.1,5.00,0.00,28.8,25.5,00.0,37.9,30.2,21.6,0000.5,0008.94,0021.72,0007.50
2021-09-11 23:36:00,,0827.1,5.00,0.00,28.7,26.0,00.0,37.9,30.3,21.9,0000.7,0008.93,0021.81,0007.52
2021-09-11 23:37:00,,0827.2,5.00,0.00,28.7,26.4,00.0,37.8,30.4,22.1,0000.6,0009.01,0022.33,0007.56
2021-09-11 23:38:00,,0827.2,5.01,0.00,28.8,26.9,00.0,37.8,30.5,22.7,0000.3,0009.02,0022.02,0007.58
2021-09-11 23:39:00,,0827.2,5.00,0.00,28.8,27.3,00.0,37.8,30.7,21.6,0000.2,0009.04,0021.09,0007.59
2021-09-11 23:40:00,,0827.2,4.99,0.00,28.9,27.7,00.0,37.8,30.8,21.3,0000.2,0009.02,0021.50,0007.59
2021-09-11 23:41:00,,0827.3,4.99,0.00,29.0,27.9,00.0,37.9,30.9,21.8,0000.2,0009.05,0021.62,0007.57
2021-09-11 23:42:00,,0827.3,5.02,0.00,29.0,26.9,00.0,37.9,30.6,20.7,0000.0,0009.08,0021.80,0007.57
2021-09-11 23:43:00,,0827.3,4.99,0.00,28.8,25.6,00.0,37.9,30.2,20.8,-000.1,0009.06,0021.45,0007.55
2021-09-11 23:44:00,,0827.4,5.01,0.00,28.7,25.7,00.0,37.9,30.2,21.2,-000.1,0009.03,0020.29,0007.53
2021-09-11 23:45:00,,0827.4,4.99,0.00,28.7,26.2,00.0,37.8,30.4,22.2,0000.3,0009.01,0019.96,0007.53
2021-09-11 23:46:00,,0827.4,5.00,0.00,28.7,26.6,00.0,37.8,30.5,22.6,0000.3,0009.02,0020.48,0007.54
2021-09-11 23:47:00,,0827.4,5.01,0.00,28.8,27.1,00.0,37.8,30.6,22.6,0000.3,0009.00,0018.94,0007.54
2021-09-11 23:48:00,,0827.4,5.00,0.00,28.9,27.5,00.0,37.8,30.7,22.1,0000.4,0009.02,0018.49,0007.54
2021-09-11 23:49:00,,0827.5,5.00,0.00,28.9,27.8,00.0,37.8,30.8,22.1,0000.8,0008.97,0018.21,0007.54
2021-09-11 23:50:00,,0827.5,5.00,0.00,29.0,28.1,00.0,37.9,30.9,22.5,0001.1,0008.98,0018.61,0007.54
2021-09-11 23:51:00,,0827.5,4.99,0.00,29.0,27.2,00.0,37.9,30.7,22.8,0000.8,0009.01,0018.83,0007.56
2021-09-11 23:52:00,,0827.6,5.01,0.00,28.9,25.8,00.0,37.9,30.3,22.6,0000.4,0008.98,0018.61,0007.56
2021-09-11 23:53:00,,0827.5,4.99,0.00,28.8,25.9,00.0,37.9,30.3,22.6,0000.5,0008.91,0018.38,0007.56
2021-09-11 23:54:00,,0827.5,5.00,0.00,28.8,26.3,00.0,37.9,30.4,22.2,0000.8,0008.96,0018.71,0007.59
2021-09-11 23:55:00,,0827.5,5.00,0.00,28.8,26.7,00.0,37.9,30.5,22.7,0001.2,0009.04,0019.32,0007.63
2021-09-11 23:56:00,,0827.4,4.98,0.00,28.8,27.2,00.0,37.9,30.6,21.1,0001.1,0009.02,0018.59,0007.62
2021-09-11 23:57:00,,0827.4,5.01,0.00,28.9,27.6,00.0,37.9,30.8,20.4,0001.0,0008.93,0019.58,0007.57
2021-09-11 23:58:00,,0827.4,4.99,0.00,29.0,27.9,00.0,37.9,30.9,20.1,0001.2,0008.85,0019.62,0007.51
2021-09-11 23:59:00,,0827.3,5.00,0.00,29.0,28.1,00.0,37.9,31.0,20.8,0001.5,0008.74,0019.51,0007.45
